Wind_Speed
7 10 10 7 5 4 1 1 1 1 2 3 0 1 1 2 2 1 6 7 5 3 4 6 7 5 6 6 7 7 7 2 2 4 2 4 20 24 19 17 16 16 16 15 14 15 14 15 13 12 12 13 14 13 13 13 14 16 16 16 16 16 16 17 17 16 15 14 15 16 16 16 16 17 18 17 17 18 18 18 17 16 17 18 17 18 18 17 17 17 19 19 19 20 20 18 18
9 8 7 4 2 1 0 1 2 2 3 2 1 0 2 4 1 4 7 7 4 5 8 9 8 7 9 9 9 8 7 6 2 4 2 15 25 20 18 17 17 17 15 15 15 15 14 14 13 12 13 13 13 13 13 13 14 15 16 16 16 16 16 17 17 16 14 14 15 16 16 15 16 17 17 16 17 18 18 17 16 15 16 16 16 17 17 16 17 17 18 19 19 19 19 18 18
8 3 4 3 0 1 0 1 2 1 3 3 1 2 2 1 3 6 9 11 10 11 12 10 8 5 8 8 6 6 2 5 4 5 5 19 20 15 19 17 17 16 15 16 15 15 14 13 13 13 13 12 12 13 14 14 14 14 15 15 15 15 16 17 17 16 14 14 14 15 15 15 15 16 17 16 17 18 16 16 15 15 15 15 15 16 16 16 16 17 17 18 18 18 18 18 18
5 2 5 6 1 1 0 2 1 1 2 2 1 3 2 2 3 5 10 13 12 11 10 8 5 3 7 10 6 7 4 2 5 6 7 15 18 20 21 17 17 15 15 15 15 15 13 13 13 12 12 12 13 13 13 14 14 14 14 14 15 15 15 16 16 16 15 14 14 14 14 14 14 16 16 15 17 17 16 16 16 15 15 15 15 16 16 16 16 17 17 17 17 17 17 17 18
5 2 5 6 0 0 1 1 0 1 2 2 2 3 3 3 1 5 8 11 10 11 10 7 5 3 7 8 3 4 5 5 7 9 10 13 20 25 22 19 18 16 15 14 15 15 14 13 13 12 12 12 13 13 13 13 14 14 14 14 15 15 15 16 16 16 15 15 15 15 14 13 14 16 16 15 16 16 16 16 16 16 15 14 14 15 15 15 16 16 16 17 17 17 16 17 18
5 2 3 3 1 1 1 1 1 1 2 2 2 4 3 3 2 6 9 9 10 11 11 9 9 9 7 5 4 5 7 8 8 10 14 17 23 25 21 20 18 18 16 14 16 15 15 14 13 13 12 12 12 12 13 13 13 13 14 14 14 15 15 16 16 16 15 15 15 15 14 13 14 16 16 15 16 16 16 16 16 15 14 14 15 16 15 15 15 16 16 16 16 16 16 17 17
5 2 2 2 1 0 2 2 1 1 2 2 1 3 2 4 3 7 11 9 9 10 11 11 11 11 8 5 6 7 10 11 11 13 19 22 24 24 21 19 19 19 16 15 16 15 15 13 13 13 12 12 12 12 13 13 13 13 13 14 14 14 15 15 15 16 15 15 15 15 14 14 14 16 16 16 16 15 16 15 16 15 14 14 15 16 16 16 15 15 15 15 15 15 14 15 16
4 2 1 1 1 1 2 1 0 1 1 1 2 3 4 5 3 8 10 8 7 8 11 10 10 12 8 5 5 8 14 13 15 21 24 25 25 23 22 21 21 19 16 16 16 15 13 12 13 12 12 12 12 13 14 14 13 12 13 13 14 14 16 16 16 16 16 16 15 15 14 14 13 16 17 16 15 15 15 15 16 16 15 13 14 15 16 15 15 14 14 14 14 13 13 14 14
2 2 1 1 1 1 2 0 1 2 2 1 2 3 5 7 2 8 9 7 8 9 12 9 8 12 9 8 8 7 13 18 24 26 25 25 25 24 23 23 22 20 17 17 16 14 13 12 12 12 13 13 12 13 14 14 13 13 13 13 14 15 16 16 16 16 17 17 15 15 15 15 14 16 17 16 16 16 15 15 16 16 15 14 13 14 15 15 14 14 14 14 13 13 13 13 14
2 2 0 1 2 2 1 1 1 1 2 1 1 3 4 7 3 7 9 9 12 11 13 9 9 14 11 10 7 7 15 24 28 25 23 26 25 24 23 23 21 20 19 18 16 15 13 13 13 13 14 13 13 13 13 14 13 13 13 14 13 14 16 16 16 16 18 17 16 15 16 16 15 16 17 16 16 16 16 16 16 16 15 14 14 14 15 14 13 13 13 13 13 13 13 13 14
3 2 0 1 2 2 1 0 2 1 2 3 2 3 1 2 6 4 11 11 13 13 14 11 11 15 13 9 5 11 23 25 25 23 24 26 24 23 23 21 20 21 21 18 16 16 15 14 14 14 14 14 13 13 13 13 13 13 13 14 13 14 15 15 15 16 17 17 17 16 16 16 16 16 17 16 15 16 17 17 16 15 15 14 14 15 15 14 13 12 12 13 13 13 12 13 14
2 1 1 2 1 1 1 1 2 2 3 3 3 5 2 2 6 5 14 12 14 15 12 9 10 12 12 8 4 15 23 22 23 24 25 25 22 22 21 20 21 20 19 18 18 17 16 15 15 15 14 14 14 14 13 13 13 13 13 14 14 15 14 15 16 15 17 17 18 17 16 16 16 16 17 16 15 16 17 17 16 14 14 14 13 14 14 13 13 12 12 13 13 13 12 13 14
1 1 2 2 1 1 1 1 1 1 2 2 1 4 4 4 5 3 13 14 15 14 9 9 11 11 11 7 7 13 17 20 24 25 25 24 22 21 20 21 21 19 18 19 19 18 18 16 15 15 14 14 14 14 13 12 12 12 13 13 14 15 15 16 17 16 17 18 19 18 17 16 16 16 16 16 16 16 15 16 15 14 13 14 14 14 13 13 13 12 13 13 13 13 13 13 13
2 1 2 1 0 2 1 2 2 2 2 1 2 3 4 2 4 3 9 15 11 11 11 11 13 11 11 9 8 8 13 23 25 25 25 23 23 21 20 21 20 19 18 20 20 19 18 17 17 16 15 15 14 13 12 12 12 12 13 13 14 15 16 16 17 18 18 18 19 18 17 17 17 16 15 15 15 15 14 14 13 13 13 14 14 13 12 12 12 13 13 14 14 14 14 14 12
3 1 2 1 1 1 1 2 2 3 2 1 0 3 3 2 3 6 2 10 8 12 13 12 10 8 10 11 8 9 18 27 26 26 25 23 23 21 20 20 19 18 19 20 20 19 18 17 17 17 16 16 14 13 12 12 13 13 13 13 13 14 14 15 16 17 18 18 18 18 18 17 17 17 15 14 15 15 14 14 13 13 13 14 13 12 11 11 12 13 13 14 13 13 14 15 14
3 3 2 1 1 1 1 2 2 3 0 1 1 3 3 1 1 4 5 7 11 12 12 10 7 5 10 11 12 19 26 28 27 27 25 24 23 22 20 19 18 18 18 18 19 18 18 17 17 17 16 16 15 14 12 12 13 13 13 13 14 14 13 15 16 16 18 18 18 18 18 18 16 16 15 14 14 14 14 14 14 13 13 13 12 12 12 12 13 12 13 14 14 14 15 16 14
2 3 1 1 1 1 1 2 3 3 1 2 2 4 4 3 2 3 5 9 14 12 10 10 8 9 11 13 20 28 30 29 28 27 24 23 22 21 20 19 19 17 17 17 18 18 17 17 17 17 17 17 16 14 13 13 13 13 14 14 15 15 14 15 16 16 18 19 19 18 19 19 17 17 15 14 14 14 15 14 14 14 13 13 13 12 12 12 13 12 13 14 15 15 16 15 13
3 3 1 1 1 1 2 2 3 3 3 4 2 4 2 3 1 3 3 9 13 12 10 11 11 12 14 20 29 30 29 30 28 27 23 21 20 19 18 18 18 18 19 18 18 18 18 18 17 17 17 17 16 15 15 15 15 15 15 16 16 16 16 17 17 17 19 20 20 19 19 19 18 17 16 15 14 14 15 14 13 14 14 13 13 12 11 12 12 11 12 14 15 15 15 14 13
3 2 1 2 2 3 3 3 4 2 3 5 5 6 3 1 2 4 4 10 12 12 11 13 14 14 17 24 30 28 28 29 27 26 22 20 19 17 16 16 17 19 20 19 18 18 18 18 17 17 17 17 16 15 16 16 16 16 16 17 16 17 17 17 18 19 19 20 20 20 20 19 19 18 17 16 15 14 14 13 13 14 14 14 13 12 12 12 11 11 12 13 15 15 14 12 11
3 3 1 3 2 3 3 5 6 4 2 5 3 3 1 2 4 3 4 13 13 13 13 15 17 15 17 21 27 27 26 26 26 26 22 20 20 18 18 16 17 19 20 20 19 18 18 18 17 17 17 17 17 16 16 17 17 17 17 17 17 18 18 18 19 19 19 19 19 19 19 19 19 18 17 16 15 14 13 12 12 13 14 14 14 13 13 12 12 12 11 12 14 13 12 10 9
3 3 1 3 0 2 3 5 7 6 3 6 4 3 4 3 4 2 6 13 11 11 15 18 21 19 17 19 25 26 24 23 23 24 22 20 19 19 19 19 20 21 20 20 20 19 18 18 19 18 17 17 17 17 17 17 17 17 17 17 16 17 17 18 18 18 18 19 19 19 19 19 19 19 17 16 15 14 13 13 12 13 15 15 14 13 12 11 10 10 10 11 11 11 10 8 7
3 3 5 2 1 1 3 4 6 6 4 7 7 6 5 3 3 4 7 10 8 10 15 19 20 18 18 19 22 24 22 20 21 22 22 20 19 17 17 18 20 20 20 21 20 19 18 19 19 18 16 16 16 17 17 17 17 16 16 16 16 16 16 17 17 18 19 19 19 19 19 19 18 18 17 17 15 14 14 14 14 15 15 15 14 12 10 8 7 7 8 8 8 7 6 5 5
2 2 3 3 3 1 3 3 3 6 5 5 5 3 3 3 2 2 2 6 9 13 17 19 18 19 22 19 18 19 18 18 20 21 22 21 19 17 18 19 20 21 20 21 21 19 18 19 18 16 16 16 16 16 16 16 16 15 14 14 16 16 16 17 17 18 18 19 19 19 19 18 18 17 16 16 14 13 14 15 15 15 14 13 12 10 8 6 5 5 5 4 4 5 5 5 5
3 2 2 3 1 0 3 5 4 5 6 4 2 3 2 3 2 3 1 8 15 16 18 18 19 22 22 16 15 15 15 16 19 21 23 23 22 21 23 22 21 22 21 21 21 18 18 19 18 16 17 16 16 15 15 15 15 14 13 13 15 16 16 17 18 18 18 18 18 18 18 18 17 17 16 15 14 13 14 15 15 13 12 10 9 8 6 4 3 2 2 1 2 4 5 5 6
3 2 4 2 2 2 3 5 6 5 5 2 2 3 1 3 2 3 2 14 19 18 18 18 18 19 16 14 15 14 14 16 19 20 22 24 24 23 23 22 21 21 22 22 20 17 17 18 18 18 18 17 16 15 15 15 15 14 13 13 15 17 17 17 18 18 18 17 16 17 16 16 17 16 16 15 14 14 14 13 12 10 10 10 8 6 4 2 1 0 0 1 1 2 3 3 6
4 5 5 4 2 3 4 4 5 5 3 1 1 2 5 5 2 1 8 17 19 19 18 18 17 15 14 13 14 14 12 15 19 19 20 24 24 22 21 22 22 22 23 22 19 18 17 18 18 19 19 17 16 16 15 15 15 15 14 13 14 17 17 16 18 18 18 17 16 15 14 15 15 15 14 13 13 13 13 11 10 9 9 8 6 5 3 1 1 0 1 1 1 2 3 3 6
6 8 7 6 3 2 2 3 4 3 3 4 1 6 8 7 4 4 12 17 18 19 18 17 16 14 14 13 13 14 14 16 20 20 21 22 22 22 21 21 22 22 23 22 19 18 18 18 19 18 18 18 16 15 15 15 16 16 15 14 14 16 17 17 18 18 17 17 16 14 13 14 14 14 13 13 13 13 11 9 8 7 6 5 4 3 2 1 1 1 2 1 2 3 4 5 7
10 10 8 7 6 3 3 3 4 2 2 2 1 4 3 5 5 7 14 17 19 19 17 16 15 13 13 13 12 11 13 18 21 22 22 21 21 22 22 22 23 23 23 22 20 19 19 18 18 18 17 18 17 16 15 16 17 17 15 15 15 16 17 18 19 19 17 16 15 14 13 13 13 14 13 13 13 12 11 9 7 6 5 4 3 2 2 1 1 2 2 2 4 4 4 5 6
9 7 5 5 6 2 2 2 1 1 1 2 2 2 4 3 5 11 15 16 18 19 17 15 13 12 12 12 10 8 12 18 20 22 24 24 23 24 24 24 25 24 23 22 20 20 20 18 18 17 17 18 18 17 17 16 17 17 16 16 16 17 18 18 19 18 16 14 14 14 13 13 13 13 13 13 13 12 10 9 7 5 4 3 2 1 1 2 3 3 3 4 5 5 4 4 3
7 6 2 2 4 1 3 2 2 1 0 4 1 4 3 1 6 13 16 16 17 17 16 14 12 11 10 11 9 7 11 16 17 21 25 25 24 25 25 25 27 27 23 21 20 20 20 18 18 18 17 18 18 18 18 17 18 17 16 18 18 18 18 17 17 16 14 12 13 13 13 13 13 13 13 13 12 11 9 8 6 5 5 4 3 2 3 4 4 4 5 5 5 5 6 5 3
4 3 3 1 2 1 3 4 2 1 1 5 2 4 2 3 7 6 9 17 18 15 15 14 11 10 10 9 8 6 9 15 19 22 26 26 25 25 26 26 26 26 24 22 20 21 20 19 18 18 18 19 19 19 19 18 18 17 17 19 18 18 17 15 14 14 12 11 12 13 13 13 12 12 11 11 10 9 8 7 6 6 5 4 3 3 3 3 2 4 5 6 6 6 6 6 3
2 2 1 3 1 2 3 4 2 1 1 4 3 4 2 4 10 4 4 12 18 15 14 13 12 12 10 8 8 6 8 15 21 23 24 27 26 26 26 26 25 25 26 24 21 20 20 19 20 20 20 21 21 21 20 19 18 17 18 19 18 17 15 13 13 13 11 11 13 13 13 13 11 10 9 10 10 9 8 7 6 5 4 3 3 3 2 2 2 2 5 6 6 6 6 7 3
2 1 1 2 1 3 2 2 2 1 0 3 4 4 4 2 11 12 9 11 16 14 13 13 13 12 10 7 7 7 7 12 17 20 24 26 27 27 27 26 25 25 26 25 21 19 20 20 21 22 22 22 22 22 21 20 19 17 17 18 18 17 14 12 13 13 13 13 13 13 13 13 11 10 9 10 10 9 8 7 6 4 2 3 2 2 2 2 2 3 4 5 6 6 7 7 4
0 1 1 1 1 4 3 1 3 2 1 1 3 2 4 4 13 15 10 11 14 12 12 14 13 10 8 8 8 7 8 10 11 17 25 27 26 27 27 26 25 25 24 25 22 19 20 20 21 23 22 21 21 21 20 19 17 16 16 17 18 17 15 14 13 14 15 15 14 13 13 11 10 10 9 10 10 9 7 6 5 4 4 3 2 1 1 1 2 4 4 3 5 6 7 6 4
5 3 2 3 3 5 4 3 4 3 1 1 2 2 3 4 13 14 8 8 12 12 13 13 12 10 8 8 8 7 8 9 9 19 27 27 27 27 26 25 25 24 23 25 23 20 20 21 20 21 21 21 20 19 18 16 16 16 16 17 18 17 15 14 14 15 16 15 14 14 13 10 9 9 8 8 8 8 7 6 5 3 4 3 1 1 1 1 2 3 4 3 4 4 5 5 3
10 7 4 5 5 4 3 3 4 5 5 3 3 3 4 4 11 10 4 4 11 13 12 12 11 9 8 8 8 7 8 9 10 22 28 26 27 27 26 26 25 23 23 24 24 22 22 21 20 20 20 20 20 20 18 16 17 18 18 18 18 18 17 15 14 15 16 16 15 16 15 12 10 9 8 7 7 8 8 7 6 3 3 3 2 2 2 1 2 3 3 3 4 4 4 4 4
10 6 5 6 5 3 2 3 4 3 4 4 3 5 4 3 5 2 5 4 10 14 13 12 11 9 8 9 9 7 8 9 13 24 28 26 27 28 27 26 24 22 23 24 24 23 22 22 22 21 21 21 21 22 20 19 20 19 19 18 19 20 20 18 16 15 14 14 16 18 16 14 12 11 10 8 7 8 8 8 5 3 2 2 2 2 2 1 2 3 3 4 5 6 5 4 4
9 6 5 5 3 3 2 3 5 2 1 4 5 7 4 1 3 6 7 3 10 14 15 13 13 11 8 11 11 8 7 7 13 21 24 25 26 27 27 26 24 23 23 24 24 24 23 23 23 22 21 22 22 22 21 21 20 19 18 17 18 21 22 21 19 16 13 11 14 17 16 14 13 12 10 8 7 8 8 8 6 4 3 4 4 3 2 1 2 3 3 4 5 7 6 4 5
7 5 5 4 3 4 4 2 3 1 1 3 6 6 4 3 5 6 7 4 5 10 14 15 14 12 10 12 12 8 7 8 11 16 20 24 26 27 26 25 25 25 24 25 24 25 25 24 24 22 22 23 23 23 22 21 19 18 17 15 17 21 22 21 19 16 13 11 11 14 14 13 13 12 10 9 9 9 8 8 6 4 4 5 4 3 2 2 2 3 5 5 5 6 5 3 4
6 5 5 4 5 5 2 2 3 1 1 2 7 5 2 3 5 5 6 6 1 5 9 13 14 13 13 13 11 9 9 10 12 13 16 22 25 24 25 25 25 25 24 24 25 26 26 26 25 24 24 23 22 22 21 20 19 17 14 13 16 20 21 20 18 16 14 11 11 13 13 13 13 13 11 11 11 9 8 8 7 4 4 5 5 3 2 2 2 4 6 7 7 9 8 3 2
6 7 5 6 9 6 3 6 6 4 2 2 7 5 1 5 6 4 5 6 1 4 6 11 10 11 14 13 11 10 10 11 13 13 14 19 22 23 25 26 25 25 24 24 26 27 27 28 26 25 24 23 22 22 20 20 19 17 14 14 15 17 19 19 18 18 16 13 12 14 13 13 13 13 12 12 11 9 9 9 7 5 5 6 5 4 2 1 2 4 6 7 8 10 11 7 3
5 7 7 10 12 6 9 13 8 4 2 3 6 4 3 7 7 4 4 5 1 2 5 11 8 7 13 12 11 11 11 11 13 13 15 18 21 23 25 26 26 25 25 25 27 27 27 28 27 25 25 24 23 22 20 20 19 18 17 17 17 17 18 19 18 19 19 16 14 14 13 13 13 12 13 11 10 10 10 9 7 6 6 6 5 4 3 2 1 3 4 5 6 8 10 10 7
3 5 8 11 10 10 13 14 7 3 4 4 4 4 3 5 7 6 5 5 2 1 4 10 7 7 11 11 10 11 11 11 12 13 15 18 21 22 23 25 26 26 26 26 26 25 26 28 27 25 25 25 24 22 20 20 19 19 19 18 19 20 19 19 19 18 18 16 15 14 12 13 13 12 12 10 9 10 11 10 8 7 7 6 5 4 4 2 1 1 2 3 5 6 7 10 11
3 6 13 13 11 12 12 9 4 3 4 3 2 1 3 4 7 6 5 5 3 3 5 8 5 6 11 10 10 13 12 11 12 12 14 18 22 23 24 25 26 27 27 26 25 25 26 28 27 25 25 25 24 22 21 21 18 18 20 19 19 21 20 19 19 18 16 15 15 13 12 13 13 12 11 10 9 10 12 11 9 8 8 7 5 5 4 3 2 1 0 2 3 5 7 8 10
2 10 15 11 11 10 7 5 3 3 4 4 3 2 3 3 3 3 5 6 6 5 7 8 5 5 9 10 11 14 13 12 13 12 14 19 23 25 26 25 26 27 27 26 25 26 26 27 26 26 26 25 24 23 22 22 19 18 21 21 19 20 19 19 20 18 16 15 14 13 14 15 13 12 11 11 11 12 13 12 10 9 8 7 7 5 4 4 3 2 1 1 1 3 5 7 8
7 15 15 11 10 7 5 4 3 3 2 3 6 5 3 3 2 4 6 7 7 6 6 7 6 5 7 8 11 13 12 11 12 13 16 22 25 27 28 27 26 27 27 26 25 26 27 27 26 26 26 25 25 23 22 21 20 19 21 20 20 20 19 19 20 19 18 17 15 14 15 16 14 14 14 13 12 12 13 13 12 10 8 7 6 5 5 5 4 2 1 1 0 1 2 4 6
15 15 13 10 7 5 4 2 3 3 1 2 6 8 4 2 4 6 6 6 7 7 6 5 5 6 6 6 9 12 11 9 11 12 16 23 26 28 28 27 27 27 26 26 25 27 27 27 26 26 25 25 25 24 22 21 21 21 21 20 20 20 19 19 20 20 19 19 18 17 17 16 15 15 15 15 13 11 12 14 13 11 9 7 6 5 5 5 5 3 1 1 1 0 1 2 3
14 10 8 8 4 3 4 3 3 2 2 1 5 8 6 4 4 6 6 6 6 7 7 8 7 6 6 5 7 11 11 9 11 11 13 19 22 24 26 26 27 27 26 26 26 27 27 27 26 26 25 25 25 24 23 22 21 22 21 20 20 19 19 19 20 22 20 18 19 19 18 17 15 14 15 16 14 11 11 12 13 11 9 7 7 6 5 4 4 3 1 2 2 1 1 2 1
10 8 6 6 3 2 2 1 1 1 2 0 3 7 6 5 3 5 8 9 10 9 8 9 9 9 8 6 7 9 10 9 10 11 12 14 17 21 23 25 27 27 27 27 27 27 28 28 27 27 26 25 25 24 24 23 23 23 21 19 20 20 20 20 20 22 21 18 20 21 19 19 17 15 16 15 15 13 11 11 12 11 8 7 7 6 5 4 3 3 3 3 2 1 1 2 2
9 9 5 4 4 2 1 2 1 1 1 2 1 6 4 4 2 6 10 11 12 12 10 9 8 7 7 5 6 8 10 9 9 11 11 12 16 21 23 25 27 27 28 28 28 28 29 28 28 28 27 26 26 25 25 25 25 24 22 19 20 21 21 21 21 21 19 19 21 21 19 19 19 18 17 15 14 14 12 11 12 11 9 7 7 6 6 6 5 5 4 3 2 2 2 2 2
8 6 4 4 4 4 3 3 2 2 1 2 1 4 4 2 2 4 7 8 9 9 8 7 5 4 4 2 2 7 10 9 8 10 12 14 19 23 23 25 27 28 29 29 28 29 29 29 30 29 28 27 27 26 26 26 26 25 23 20 19 20 22 22 21 20 19 20 21 21 20 19 18 18 17 15 14 14 13 11 11 11 9 10 9 8 8 7 7 7 6 5 4 4 4 3 3
3 3 3 2 4 5 4 2 3 4 2 1 1 2 3 3 3 3 4 6 8 8 5 6 7 8 9 4 2 5 9 9 8 10 11 15 22 24 22 25 28 28 29 29 29 29 30 30 31 30 29 29 28 27 26 26 25 25 24 22 20 20 21 22 21 21 20 21 21 21 20 19 18 17 16 15 14 13 13 12 12 11 10 11 11 10 9 8 8 8 7 7 6 5 4 3 3
1 2 2 3 2 6 6 2 2 4 2 1 2 2 2 1 2 3 6 7 9 9 8 7 8 10 12 8 4 4 7 9 9 10 11 14 20 23 22 25 28 29 29 29 30 31 31 31 31 31 29 29 29 28 26 25 25 25 24 22 21 21 21 21 21 21 21 22 21 20 19 18 19 18 17 16 15 14 13 13 13 13 12 12 12 12 11 10 9 8 8 8 7 6 6 4 4
5 2 5 2 1 3 5 3 1 1 1 1 2 4 2 1 1 3 8 9 10 12 11 9 7 7 10 9 6 4 5 7 8 9 12 15 20 22 22 26 30 31 31 31 32 33 32 32 32 31 30 29 29 29 28 26 25 25 24 23 22 22 21 21 20 20 21 21 21 21 19 18 18 19 17 16 16 15 14 14 14 14 14 13 13 13 13 12 11 9 9 9 8 7 7 6 6
8 6 7 4 2 1 3 3 3 2 1 1 2 3 3 4 3 4 9 11 12 13 12 10 9 8 10 10 8 5 5 5 7 7 9 13 19 22 23 26 30 32 32 33 33 32 31 32 32 32 31 30 29 28 28 27 26 24 24 24 24 23 22 21 20 20 20 20 21 21 19 18 17 17 17 16 16 15 15 15 15 14 14 14 13 12 12 13 12 10 9 9 8 7 7 7 7
4 4 4 3 2 3 3 2 3 4 2 1 1 0 3 4 4 7 10 11 12 13 12 11 10 9 10 11 9 6 5 5 8 9 9 13 19 23 24 27 30 32 32 32 32 31 31 31 31 31 30 29 29 28 27 27 27 24 24 25 25 24 23 21 19 20 19 19 20 19 19 19 17 16 16 17 17 16 15 16 15 13 14 14 13 11 10 12 13 11 10 9 8 7 6 7 6
3 3 2 3 0 2 2 1 2 4 4 2 1 0 4 4 3 8 10 10 11 13 12 11 11 11 10 11 10 8 6 6 9 9 9 13 20 24 25 27 30 32 32 32 32 31 31 31 31 31 30 28 28 28 26 27 27 25 25 25 26 25 24 22 20 19 20 19 19 18 18 18 17 17 17 17 18 17 16 16 16 14 14 15 14 12 10 10 12 12 11 10 9 7 7 8 7
6 4 4 5 2 3 3 0 2 2 4 3 3 2 5 3 3 6 8 9 10 12 12 10 11 11 10 9 9 7 5 6 10 10 9 13 19 23 25 27 29 30 32 32 31 31 31 31 31 31 30 29 29 29 28 27 26 26 26 24 25 25 24 23 21 20 20 20 19 19 19 18 18 18 18 17 17 18 17 17 17 16 16 15 14 13 12 12 12 12 11 10 10 9 9 9 9
Wind_Direction
147 137 132 134 133 144 187 234 46 347 69 83 61 29 273 242 245 66 86 100 107 151 138 123 130 128 118 116 127 95 57 91 149 138 181 152 151 160 160 158 160 154 145 139 137 133 132 131 130 130 125 121 119 118 122 124 124 123 122 124 123 123 126 127 127 125 123 121 121 122 122 120 119 121 124 129 136 131 120 116 117 119 120 120 118 112 109 110 113 113 112 111 111 109 106 104 102
143 130 138 128 117 139 233 227 76 1 55 74 323 194 267 301 254 105 99 110 116 118 110 112 110 100 102 110 116 88 41 2 52 118 88 132 143 157 156 157 159 151 144 140 139 137 135 134 136 136 129 123 122 122 125 128 126 125 126 127 127 128 130 130 130 127 124 125 124 122 121 120 118 123 128 134 139 130 119 117 118 118 118 117 114 111 111 112 113 113 111 111 110 107 106 105 103
136 103 171 175 251 190 246 17 90 40 68 101 287 269 275 284 173 114 105 113 113 113 109 108 96 89 106 103 83 81 58 357 71 97 99 134 142 158 157 158 158 151 144 142 142 140 137 134 135 133 129 128 131 130 130 130 127 126 127 128 130 132 132 130 130 128 127 127 125 123 121 121 120 125 130 136 138 129 119 118 117 116 116 113 110 113 115 114 113 112 111 111 109 108 107 105 104
131 55 187 189 216 183 36 44 93 90 102 141 194 271 267 206 189 115 114 118 116 113 107 103 77 15 95 104 93 84 95 44 88 98 125 148 151 155 155 156 157 150 144 147 148 143 139 136 135 134 136 137 136 136 135 134 132 132 133 133 132 133 131 130 133 134 132 129 127 126 124 124 126 128 132 136 136 128 120 118 116 114 115 112 111 117 119 117 115 114 113 113 111 110 109 108 107
145 87 157 176 13 12 64 65 36 78 149 169 154 265 258 229 213 117 118 114 113 109 107 108 94 75 87 99 114 105 116 116 105 108 130 152 152 150 152 154 154 150 149 155 154 148 146 144 142 142 142 140 140 141 140 138 136 136 138 137 133 132 131 134 138 139 136 133 133 131 129 130 130 130 132 135 133 127 123 120 118 117 118 118 119 120 120 118 117 116 115 113 112 111 111 111 111
161 95 101 134 84 164 90 64 6 338 229 163 159 258 240 247 255 117 98 93 97 100 105 100 108 108 86 66 56 109 138 126 124 128 135 146 149 147 148 151 151 153 157 159 158 155 153 150 146 144 143 143 145 146 145 143 140 138 138 136 135 135 135 137 140 141 138 137 137 135 134 133 131 130 131 133 131 127 125 124 122 122 122 123 122 120 120 119 118 118 117 115 113 113 113 114 114
158 105 43 76 74 110 77 67 14 310 255 154 207 259 249 266 238 112 91 89 83 89 101 101 117 107 90 97 81 106 126 122 131 141 142 144 145 144 147 153 155 159 161 160 162 159 154 150 146 146 145 147 148 147 146 144 142 140 137 136 138 139 140 139 140 142 140 138 137 137 136 133 132 130 129 131 130 128 127 127 126 125 124 124 122 120 119 120 120 119 119 118 115 115 115 114 113
130 106 290 81 61 14 85 67 255 237 251 193 260 280 299 284 206 111 102 110 99 104 106 112 120 98 91 109 99 111 117 121 132 138 141 142 143 145 151 156 157 160 161 161 161 157 151 149 148 147 146 148 148 146 147 147 145 142 140 141 142 142 144 142 141 142 141 139 137 137 135 130 130 129 129 130 131 132 132 134 132 129 128 126 124 121 120 121 121 121 123 123 118 116 117 115 113
81 66 237 93 97 44 97 272 213 223 260 257 280 290 305 299 219 117 114 117 115 118 110 121 117 100 106 101 98 108 111 123 131 134 138 141 144 145 152 157 158 159 160 160 155 150 148 148 146 144 143 144 144 144 146 148 148 145 144 145 144 143 145 145 142 141 143 143 141 139 136 132 131 129 131 134 135 137 138 138 136 133 131 129 127 123 121 122 122 124 129 128 122 118 118 117 117
24 38 145 74 108 74 90 271 237 247 284 289 309 294 314 317 287 126 119 116 114 109 104 108 102 108 118 104 98 113 119 128 132 135 139 140 141 144 150 157 161 159 157 156 151 148 147 147 146 144 143 143 142 141 144 146 147 146 144 145 146 145 146 146 142 142 146 146 145 144 139 137 136 135 134 137 141 142 141 140 136 134 133 132 130 127 125 123 124 128 133 134 129 124 120 119 117
19 7 131 67 61 69 97 259 262 276 335 351 11 315 317 326 293 131 110 109 108 104 111 107 103 113 112 102 92 123 129 133 134 136 140 140 140 146 150 155 160 159 156 153 147 146 147 148 148 148 145 144 143 143 145 146 146 146 146 147 148 147 147 146 142 144 147 146 147 146 141 139 138 138 138 141 144 144 143 139 136 136 137 135 130 129 128 126 127 131 136 140 137 130 125 121 115
30 338 42 79 66 85 142 161 275 314 11 6 10 336 29 33 321 121 115 112 112 113 127 125 123 122 110 106 113 131 136 139 138 136 138 140 142 147 150 153 155 154 152 147 143 146 148 148 148 147 144 143 144 145 147 147 146 146 147 148 148 147 146 144 142 145 146 146 148 145 141 140 139 140 140 142 143 144 142 138 138 140 142 138 129 127 129 129 129 132 138 143 142 137 133 123 116
104 164 76 85 170 153 192 159 229 322 36 3 294 332 12 24 332 120 119 122 125 125 135 132 133 124 110 116 130 138 142 143 140 137 138 139 141 143 146 150 148 146 146 145 145 146 146 146 145 143 141 143 144 145 146 145 143 143 145 147 149 148 147 145 144 145 147 147 147 144 140 140 139 139 139 140 141 142 141 140 140 139 138 133 127 127 130 134 133 134 138 141 142 143 142 131 122
138 145 108 70 221 170 175 144 188 161 115 229 220 348 35 66 283 282 122 128 129 128 127 130 132 113 116 133 139 148 148 146 143 138 137 136 137 135 140 144 141 142 145 148 147 145 146 145 145 143 142 143 142 141 141 142 142 143 144 146 147 149 148 143 142 144 147 146 142 141 139 137 136 136 138 141 140 141 141 141 137 132 130 127 128 129 132 137 136 135 135 137 141 145 147 143 140
142 82 78 43 308 201 158 149 183 161 153 190 354 11 89 153 279 309 147 131 116 127 126 133 135 114 143 154 148 154 149 146 142 137 134 131 132 129 133 137 135 139 143 147 147 146 147 146 145 144 143 141 140 140 140 142 143 143 144 144 141 143 143 138 139 141 142 142 139 140 139 137 136 136 139 142 140 141 142 140 134 132 132 129 131 132 133 137 137 136 134 135 139 144 147 147 148
142 96 72 354 278 233 185 151 131 147 109 62 16 33 97 223 238 294 272 137 123 139 137 147 155 130 152 152 141 145 145 144 139 136 133 130 130 128 131 134 136 139 142 146 147 148 147 145 145 142 141 139 139 140 140 142 141 142 140 138 137 138 138 136 138 138 138 138 138 139 139 140 138 136 139 141 141 142 144 143 140 139 137 134 137 140 140 139 139 137 134 135 138 143 145 147 146
122 83 71 293 251 224 215 169 139 148 115 99 46 45 43 322 201 255 266 140 135 145 141 146 138 119 137 140 139 142 142 141 138 135 132 130 131 130 134 137 140 144 147 151 150 149 146 144 144 141 140 140 141 140 139 139 137 139 134 132 136 137 137 135 136 138 139 138 138 139 139 140 137 136 141 144 144 144 144 144 143 142 141 140 140 141 137 135 135 135 134 135 140 145 147 148 148
112 73 55 246 204 201 223 172 142 146 121 137 146 99 69 307 263 276 240 140 134 135 133 131 115 116 132 137 139 141 141 139 137 136 132 131 133 134 140 143 147 151 153 154 154 151 148 146 145 143 143 143 145 144 142 138 137 139 134 131 134 136 137 137 139 141 142 140 140 142 141 139 139 143 147 147 144 142 143 146 146 144 143 139 135 133 129 129 131 134 135 137 143 148 150 151 151
99 91 54 248 190 181 198 131 121 161 120 140 160 125 123 263 49 305 221 147 134 132 132 125 118 125 134 137 141 142 141 141 140 138 134 136 141 143 146 151 154 157 157 157 156 155 151 149 147 145 144 146 148 147 143 140 139 138 135 134 133 137 141 141 143 143 142 141 141 142 143 144 147 148 146 141 138 139 143 147 147 145 142 135 133 133 131 133 135 138 139 141 147 151 152 154 158
93 84 24 271 195 153 173 138 147 194 134 116 128 97 126 208 101 328 217 149 142 143 142 134 133 143 142 139 143 143 143 144 143 140 139 143 149 152 154 158 158 160 162 159 157 157 157 153 148 145 145 148 150 148 144 142 143 139 135 136 136 138 141 141 142 143 142 142 143 144 146 148 148 146 142 139 137 140 144 147 148 146 141 136 137 137 134 136 137 139 139 142 148 151 152 153 157
98 103 207 264 194 127 168 152 160 183 148 124 143 162 196 202 125 247 196 149 147 154 150 144 145 149 145 140 144 147 148 147 145 142 142 147 154 159 161 162 162 162 162 159 159 160 161 156 149 148 149 152 152 148 144 144 145 142 138 137 138 139 141 141 144 146 145 144 145 147 148 149 149 146 143 142 142 146 149 150 149 145 139 136 136 134 133 136 138 140 141 142 145 148 152 155 158
98 157 204 240 314 235 161 156 160 151 130 141 159 183 178 161 164 225 191 154 155 156 148 147 147 147 146 142 144 148 150 149 149 147 147 152 157 160 161 160 160 160 161 161 161 161 162 157 152 152 154 153 151 146 145 147 147 146 142 140 141 142 142 142 144 146 146 146 147 148 149 150 149 148 146 145 147 151 149 146 144 139 136 133 131 130 131 135 139 147 152 155 157 162 174 183 186
125 182 193 188 238 235 135 144 143 121 130 161 162 181 157 142 217 263 206 161 148 143 142 145 143 142 145 143 142 147 150 152 153 153 154 154 155 158 160 159 160 160 163 164 160 158 160 159 157 157 155 153 151 148 149 150 150 149 146 144 145 146 146 143 143 145 146 149 149 149 149 149 148 147 147 146 148 148 142 140 139 137 135 133 132 130 131 131 134 146 161 176 192 207 218 214 199
127 123 205 186 215 138 136 143 131 129 152 169 136 143 151 155 171 335 300 144 135 137 138 139 138 140 144 144 143 147 150 153 155 156 155 156 158 160 163 161 161 162 163 164 158 156 163 165 163 159 157 157 157 155 155 152 150 150 147 146 149 151 149 146 147 148 149 151 151 151 150 149 148 145 144 141 142 143 139 139 139 139 139 137 133 130 131 131 128 138 154 195 231 238 236 226 207
134 146 212 169 85 122 135 132 137 149 154 150 117 144 223 183 129 348 186 141 134 138 136 136 139 142 145 145 146 150 157 157 158 157 151 155 159 158 161 160 160 162 164 164 157 158 168 168 165 161 161 165 163 161 160 155 150 152 149 148 152 155 153 150 151 151 150 151 152 152 153 151 148 143 140 138 140 142 143 145 146 147 144 137 132 128 130 134 134 138 334 281 240 241 230 222 212
179 162 169 139 112 140 131 124 133 139 138 87 98 188 227 204 140 63 153 140 134 136 136 139 142 145 149 148 153 160 166 161 161 157 146 150 155 154 159 159 160 164 166 165 160 162 171 169 167 167 168 171 166 163 162 156 151 151 150 150 155 159 158 154 153 152 149 149 151 153 155 153 147 142 141 141 143 145 148 148 147 147 142 135 131 125 119 106 78 142 291 273 245 254 234 218 211
144 128 119 108 80 33 97 118 109 112 119 97 147 227 212 184 149 130 144 137 134 136 137 142 145 149 151 153 163 168 168 165 162 150 141 147 153 155 159 160 162 166 168 167 164 164 170 171 172 174 174 173 169 167 164 155 150 148 147 149 155 162 161 156 154 152 149 150 152 153 155 155 151 148 148 149 149 149 150 149 147 146 144 142 137 133 129 96 83 151 195 223 253 270 256 237 217
121 117 100 89 86 44 33 88 97 105 114 91 216 231 179 162 164 147 145 142 138 138 141 146 149 150 154 161 170 173 169 166 158 144 144 154 157 160 162 163 163 167 171 169 165 164 168 172 172 176 176 173 173 173 169 160 154 150 148 150 155 161 160 157 156 155 154 155 156 155 157 159 159 158 157 156 155 155 158 159 161 157 150 145 141 149 155 178 203 195 207 264 289 291 289 265 235
103 92 94 96 97 74 8 56 69 81 109 316 289 155 123 158 170 149 146 145 142 141 144 149 153 154 158 167 173 177 168 163 157 148 153 159 161 164 165 166 165 166 172 168 163 165 170 173 170 172 173 172 174 175 173 167 161 158 154 153 154 157 157 157 158 159 159 160 160 158 158 162 164 164 162 160 160 162 165 165 168 163 149 147 149 171 209 233 249 257 270 298 301 306 328 323 271
75 39 27 95 97 62 338 13 346 48 306 308 313 150 150 181 159 153 151 146 144 143 147 152 156 160 164 170 177 178 163 160 157 151 155 159 162 165 166 169 166 164 170 167 164 168 172 173 171 171 172 172 171 171 171 167 165 164 159 156 154 156 157 157 158 161 162 164 165 161 160 164 167 168 167 167 167 167 166 166 170 165 157 163 171 212 242 251 271 298 308 308 310 319 334 334 288
76 59 359 327 125 148 332 344 345 72 267 318 17 139 149 140 134 137 153 149 148 146 151 158 159 163 167 171 175 170 158 159 158 153 154 157 160 164 165 168 165 162 167 168 168 172 172 171 170 170 168 169 168 167 167 164 164 163 160 158 158 159 158 159 164 164 164 168 171 166 162 164 165 167 168 172 174 173 170 166 164 160 156 166 183 204 231 256 289 327 321 306 312 322 330 344 318
58 93 14 305 94 134 300 316 343 101 261 348 37 133 124 128 132 135 237 163 150 151 156 160 160 163 166 169 167 159 157 156 156 156 153 154 157 161 164 167 167 163 164 167 170 174 171 167 167 166 165 166 166 165 164 161 160 159 159 161 163 163 163 168 172 167 165 167 171 169 164 163 163 164 167 175 177 173 170 163 155 151 148 161 183 203 238 270 270 322 318 304 315 329 340 6 27
4 77 130 308 41 159 202 308 318 355 356 16 33 137 135 138 155 171 220 185 154 154 158 158 161 163 162 164 160 154 154 151 155 155 151 153 156 160 164 168 169 166 163 165 171 175 171 165 164 163 164 164 163 163 163 162 160 158 160 164 167 167 167 175 174 170 168 164 165 167 164 163 162 160 163 171 172 169 165 158 152 153 168 173 189 235 273 278 263 298 308 301 315 332 347 13 50
24 44 136 133 190 186 153 213 269 337 347 43 32 106 137 150 171 180 212 191 159 154 156 157 160 159 158 160 154 152 155 155 156 150 150 155 157 160 163 167 170 167 163 164 170 175 168 162 161 161 162 163 163 164 163 164 164 163 163 165 169 169 171 177 180 179 172 165 164 164 162 161 159 158 160 166 170 169 163 151 152 172 195 196 226 254 261 300 277 299 298 296 313 330 347 11 42
169 179 167 148 196 209 180 184 202 156 124 141 105 124 98 134 177 189 218 192 160 156 155 156 160 155 156 159 152 150 154 162 160 148 152 157 156 158 161 164 168 167 166 167 169 172 168 162 162 162 162 164 165 164 163 165 168 171 172 171 173 173 176 180 183 183 175 170 171 168 168 167 163 162 163 170 173 173 170 160 163 185 197 197 222 204 207 293 282 296 291 293 310 326 342 356 5
170 173 161 156 172 196 188 164 175 161 130 154 179 128 91 160 185 193 247 208 162 156 156 156 160 155 155 160 153 149 158 171 159 148 153 157 155 157 161 164 167 167 169 170 169 170 170 168 167 167 168 168 169 168 169 172 174 179 182 183 184 181 182 182 177 177 178 179 181 177 176 175 171 170 171 179 187 186 180 172 174 191 198 196 193 183 197 247 293 309 312 318 323 348 6 12 0
154 156 161 160 154 149 153 137 175 185 135 177 181 95 106 197 203 245 311 232 166 156 158 159 162 157 156 163 159 155 169 174 149 146 154 156 154 157 160 162 165 167 171 171 170 171 173 172 170 169 172 173 173 174 176 178 180 184 182 184 190 188 186 186 180 177 181 184 186 183 182 180 175 171 169 174 185 185 177 176 184 186 174 176 178 179 187 200 334 331 336 336 341 4 24 52 49
147 154 155 148 145 127 79 116 174 224 96 171 136 110 134 234 271 308 329 251 175 161 162 161 163 160 155 165 165 164 176 165 142 145 153 154 154 157 159 161 165 168 172 174 172 173 175 174 170 170 171 172 175 176 177 178 182 185 181 180 188 190 189 189 186 184 185 186 188 188 186 184 177 169 167 168 170 170 172 179 183 175 159 155 164 164 149 90 5 350 350 347 351 359 6 55 76
147 148 139 137 143 113 69 93 174 266 336 154 133 129 148 187 244 296 333 290 182 157 164 164 163 159 157 168 170 170 173 156 146 149 151 152 155 157 158 161 166 169 172 175 175 173 174 173 171 171 171 171 174 176 177 180 183 184 183 181 180 184 188 190 189 187 187 189 192 191 187 186 181 174 172 171 169 172 182 186 181 179 172 163 165 159 111 64 32 23 20 12 9 8 10 68 76
150 149 140 153 167 157 136 172 169 85 22 131 125 112 107 179 253 305 320 287 210 127 158 166 165 158 161 172 170 169 170 156 152 153 149 151 154 155 159 163 166 167 167 171 173 172 173 174 173 173 173 173 174 176 179 182 182 182 186 185 174 172 176 181 183 186 190 193 194 191 188 188 185 181 181 179 177 184 188 183 181 186 183 178 176 166 125 71 50 40 37 29 25 26 28 54 35
173 170 151 156 178 189 130 140 152 106 55 84 112 100 122 192 233 279 301 292 332 89 139 168 176 160 162 172 168 166 168 158 154 155 151 152 153 156 160 164 165 166 167 168 170 171 173 175 177 178 177 177 177 177 178 181 182 184 188 187 178 171 168 170 174 180 188 192 191 191 189 190 188 184 185 185 185 189 183 177 184 191 183 182 180 173 170 114 65 47 44 39 36 31 29 37 22
186 197 177 165 169 153 113 134 150 124 158 209 144 141 190 200 219 235 282 289 330 51 149 168 181 164 164 172 167 165 166 160 157 156 154 154 154 156 160 164 166 169 170 169 170 171 174 176 179 181 180 179 178 177 180 186 189 190 188 185 185 180 173 175 178 180 186 190 191 192 191 192 192 185 181 182 186 186 180 181 193 198 187 178 176 181 193 183 100 50 50 48 42 34 32 40 43
193 202 157 147 140 126 134 148 156 139 172 199 170 157 150 199 226 218 231 255 248 322 179 169 171 171 172 173 167 165 165 160 159 157 155 155 155 156 160 165 168 172 174 173 172 173 176 177 179 182 181 180 180 183 188 193 194 194 192 188 189 187 182 184 187 188 191 193 194 194 193 191 188 182 177 179 189 190 187 191 196 192 183 175 177 191 198 189 150 37 56 64 48 36 37 40 40
204 160 132 131 130 137 147 148 142 126 123 124 156 117 111 200 231 203 204 252 249 232 201 177 170 177 178 177 169 166 166 162 161 160 155 157 159 160 164 167 169 173 174 174 176 177 178 179 180 181 180 181 185 190 193 195 195 195 195 192 189 191 190 188 190 194 196 195 195 195 192 185 179 179 183 190 202 199 191 193 193 184 176 175 184 194 193 185 193 218 104 78 57 39 38 37 40
144 126 119 122 125 132 134 113 95 107 116 142 190 149 132 208 228 151 176 233 238 220 208 192 184 190 183 179 174 168 167 163 162 162 158 161 163 164 167 168 170 172 173 176 179 181 181 181 182 182 182 185 189 192 194 196 197 195 194 193 192 194 195 193 191 195 198 197 197 195 189 184 182 187 194 203 210 200 191 192 195 193 185 180 184 192 193 189 193 197 155 93 67 50 39 32 40
102 103 96 90 93 93 87 89 82 85 122 181 192 180 169 204 198 164 185 222 226 213 211 202 190 195 187 179 176 170 167 164 163 162 160 163 166 166 168 168 169 172 174 177 180 182 183 183 184 185 187 190 191 193 196 199 200 197 192 192 193 194 196 196 193 193 198 200 200 194 187 185 189 195 200 206 209 205 200 198 198 199 200 195 187 191 201 199 200 190 155 212 304 55 33 27 39
111 95 89 84 73 63 62 47 62 82 245 224 193 195 193 205 202 192 189 200 205 197 203 207 196 200 193 180 177 172 168 166 162 160 159 163 166 167 168 168 169 172 174 176 180 182 184 186 187 188 190 191 191 193 195 196 199 198 193 191 192 193 194 195 194 195 198 202 203 197 189 188 194 202 205 206 207 213 213 203 199 198 201 206 200 195 201 200 204 203 190 257 270 319 329 355 31
112 103 114 101 61 24 40 1 31 103 220 219 191 198 202 220 217 200 186 171 184 196 199 199 196 204 198 181 178 175 172 166 159 158 157 160 165 167 168 169 171 173 175 177 180 182 184 187 189 190 191 192 192 192 193 193 194 192 190 191 192 194 195 196 197 199 200 204 204 198 192 193 200 204 203 203 208 215 215 204 199 197 196 204 207 204 200 194 202 209 242 288 268 247 291 294 348
113 121 132 106 80 24 32 316 331 155 215 351 189 191 201 239 228 191 187 179 188 200 204 199 194 199 197 183 181 176 172 170 162 158 159 160 165 168 169 169 171 173 176 179 181 182 184 187 189 191 193 193 193 193 192 193 192 189 189 192 196 199 201 201 200 200 203 204 199 194 194 197 201 201 199 205 211 213 213 205 198 197 196 199 203 207 207 204 216 225 249 282 266 243 310 302 324
138 144 150 124 124 115 123 230 232 202 222 8 132 174 189 269 247 189 191 190 192 195 201 205 196 199 201 182 179 177 172 174 167 160 162 163 166 170 170 171 172 174 177 179 181 183 184 187 189 192 195 196 196 195 195 195 195 194 195 198 200 202 202 201 200 200 201 198 195 195 197 200 203 203 204 210 214 215 214 206 198 199 201 203 206 209 210 215 223 226 242 262 249 248 290 306 313
163 151 133 140 157 154 163 196 187 171 171 34 46 169 177 223 231 199 190 187 190 189 191 192 176 197 247 279 189 183 173 172 172 166 166 167 169 171 169 170 174 176 177 178 181 183 184 186 189 191 194 196 197 198 199 200 199 199 201 201 200 201 201 201 201 202 201 197 197 201 204 205 207 207 209 214 216 216 213 205 203 206 207 210 215 213 212 220 225 223 230 237 236 248 263 270 279
201 133 113 184 195 146 127 160 159 138 126 111 189 218 206 191 193 189 175 179 186 181 164 154 155 181 212 238 259 203 179 170 173 170 170 169 171 173 168 167 173 177 177 179 181 183 184 186 189 192 194 196 197 200 202 202 202 201 202 201 202 202 201 203 204 205 205 203 203 207 209 211 211 210 212 216 218 215 211 209 210 209 206 210 217 216 216 222 221 217 221 226 226 231 241 249 267
181 146 194 240 199 128 112 92 92 101 105 162 200 239 275 232 213 172 162 177 184 179 171 165 161 173 191 200 221 229 192 175 173 173 174 171 171 174 169 167 173 176 177 180 182 185 187 187 189 192 194 195 197 200 202 203 202 201 201 201 202 201 199 201 205 206 207 207 209 211 213 214 213 212 213 214 217 216 215 217 216 213 211 214 220 221 224 228 221 216 220 225 226 226 232 247 273
120 201 225 215 30 81 98 104 86 92 120 182 210 233 231 198 246 161 160 175 184 183 179 171 163 167 183 192 200 222 208 178 167 170 174 172 172 174 169 169 175 177 179 182 184 186 188 189 191 192 193 195 197 200 201 201 201 201 201 200 199 200 201 202 205 207 207 208 211 213 214 214 211 213 214 212 215 219 223 223 219 217 216 219 226 229 232 231 223 220 225 229 232 235 241 250 265
138 187 200 161 129 107 103 121 152 148 159 219 222 241 222 200 211 185 178 184 184 182 180 172 170 175 187 196 197 206 213 174 156 173 183 176 176 176 170 170 175 178 180 182 183 185 187 190 192 193 195 196 197 199 200 201 202 202 202 201 199 200 202 203 205 207 208 209 211 213 213 212 209 211 212 210 214 222 224 217 215 219 219 220 230 235 232 225 220 224 232 235 235 240 252 254 261
146 151 177 171 140 152 162 157 147 140 149 219 210 324 244 229 205 187 191 190 179 177 178 176 178 182 189 198 197 195 208 186 170 186 192 179 179 180 175 172 174 178 180 180 181 184 186 190 192 194 197 198 197 199 201 203 203 204 203 202 202 203 203 204 204 205 208 209 208 210 211 210 210 213 212 211 216 220 216 210 212 221 221 221 230 236 227 220 221 228 236 241 238 240 262 267 271
170 116 164 208 122 120 155 158 137 128 138 176 144 207 259 253 195 183 188 182 175 175 177 179 186 189 189 194 195 188 193 195 185 188 192 182 179 181 180 176 174 176 179 180 181 184 186 188 191 193 196 198 198 200 202 205 205 205 205 203 204 205 205 205 205 207 211 211 210 210 210 210 213 217 216 213 215 216 215 215 218 222 221 222 231 234 227 223 227 232 237 243 238 240 262 272 276
169 145 180 192 165 120 114 242 264 120 129 168 156 192 268 263 181 186 185 171 169 175 180 185 189 190 190 189 187 179 180 199 193 187 191 184 177 178 179 176 171 172 177 179 181 183 185 187 189 192 195 198 199 200 203 205 206 205 206 206 205 206 205 206 208 211 212 213 213 213 212 214 216 219 219 214 213 215 218 221 223 223 221 222 229 233 229 229 234 238 242 244 239 238 254 265 268
Height
796 796 796 797 796 797 798 799 812 813 813 828 826 823 816 805 804 802 803 802 803 802 793 795 797 798 803 809 813 812 815 819 821 828 832 821 815 821 822 825 827 828 830 830 831 832 832 833 834 835 835 835 835 835 836 835 836 837 837 838 838 838 838 838 837 838 838 837 837 837 837 837 837 838 838 839 839 840 841 842 844 845 846 846 846 846 846 846 846 847 846 846 847 847 846 847 847
796 797 796 797 796 799 802 799 817 822 820 832 826 823 815 804 805 804 804 802 802 797 791 795 797 798 800 802 805 810 816 816 812 815 817 814 818 822 823 826 828 829 830 831 832 832 833 833 834 835 835 836 836 836 837 837 837 838 839 839 839 839 839 839 838 838 839 839 838 838 838 839 839 839 839 840 840 841 843 844 845 847 847 847 847 848 848 848 848 848 848 848 848 848 848 848 848
796 797 796 798 796 798 802 803 820 828 828 835 827 818 810 808 806 802 800 797 795 792 792 796 798 801 802 808 809 815 822 816 810 812 815 817 819 822 825 827 828 830 831 832 833 833 834 834 835 835 836 836 837 837 838 838 838 839 839 840 840 840 840 839 839 839 839 840 839 839 840 840 841 841 841 841 842 843 844 845 846 848 848 848 848 849 850 850 850 850 850 850 850 850 849 849 849
796 797 796 797 799 801 806 813 822 827 832 834 828 816 808 809 803 799 797 793 792 791 795 798 804 802 802 815 814 816 823 817 813 812 815 818 819 822 825 827 829 831 832 833 833 833 834 834 835 836 837 837 838 839 839 839 839 840 840 840 840 840 840 840 840 840 840 840 840 841 841 842 842 843 843 843 844 845 845 846 847 848 849 850 850 851 851 851 851 851 851 851 851 851 851 851 850
796 796 796 796 803 807 810 818 821 825 829 826 824 815 807 806 801 799 796 793 791 792 796 799 809 805 803 813 811 817 821 817 815 813 816 819 820 823 825 828 830 831 832 833 833 834 834 835 836 837 838 838 839 839 840 840 840 840 840 840 841 841 841 841 841 841 841 841 841 842 843 843 844 844 845 845 845 846 847 847 848 849 850 851 852 852 852 852 852 852 853 853 853 853 853 852 852
795 796 795 795 801 804 812 823 825 826 821 816 818 811 805 804 800 799 796 795 792 792 795 798 807 808 811 812 809 815 815 815 816 815 816 819 821 824 826 829 830 832 832 833 834 835 835 836 837 838 838 839 839 840 840 840 841 841 841 841 841 841 842 842 843 843 843 843 842 843 844 845 845 846 846 846 847 847 848 848 849 850 851 852 853 853 853 853 853 853 854 854 854 854 854 854 854
795 797 798 801 804 804 818 828 826 826 815 811 814 808 804 802 798 797 799 800 799 797 796 800 801 807 819 815 814 815 812 814 814 816 818 820 823 825 827 829 830 832 833 834 835 835 836 837 837 838 838 839 839 840 841 841 841 841 841 842 842 842 842 843 843 844 844 844 844 845 845 846 847 847 848 848 848 849 849 850 851 852 853 854 854 854 854 854 854 855 855 856 856 855 856 856 856
795 799 801 806 813 813 822 827 823 822 813 809 810 807 804 801 797 797 801 802 804 802 800 802 798 809 822 815 820 819 813 816 815 818 820 821 825 826 828 829 831 832 834 835 835 837 837 838 838 838 838 839 839 840 841 841 842 841 842 842 842 842 842 843 844 844 845 846 846 846 846 847 848 848 849 850 850 851 851 852 852 853 854 855 855 855 855 855 856 856 857 857 857 857 857 858 858
794 799 803 810 819 821 825 826 822 818 812 809 808 805 802 801 797 796 801 802 802 803 803 803 798 811 824 818 823 819 814 818 817 820 822 824 826 827 829 829 831 832 834 835 836 837 837 838 838 839 839 839 840 840 841 842 842 842 842 842 842 843 843 844 844 845 846 846 847 847 847 848 849 850 850 852 852 852 853 853 854 854 855 856 856 856 856 856 857 857 858 858 858 858 859 859 859
797 800 806 813 820 826 829 827 821 817 813 809 807 805 803 804 800 796 800 803 801 804 804 802 802 811 821 823 825 819 818 820 819 823 824 826 827 828 830 830 832 832 835 836 836 837 838 839 838 839 840 840 841 841 842 842 842 843 843 843 843 843 844 844 844 846 846 847 847 848 848 848 850 850 851 853 854 854 854 854 855 856 856 856 857 857 857 857 858 858 859 859 859 859 859 860 860
803 803 805 816 824 830 832 828 821 817 813 809 807 804 803 804 804 799 800 804 801 805 806 804 811 814 819 826 826 821 820 821 821 824 825 827 828 829 830 832 833 834 835 836 837 838 838 839 839 840 840 841 842 842 842 842 843 843 843 843 844 844 844 845 845 846 847 847 847 848 849 850 851 851 853 854 855 855 855 855 856 857 857 857 857 858 858 859 859 860 860 860 860 860 861 861 861
808 810 807 820 828 829 828 826 823 816 813 812 810 805 804 805 806 803 802 807 804 808 808 805 812 812 821 830 825 822 821 823 824 825 827 828 829 830 831 833 834 835 836 837 838 838 839 840 840 841 841 842 842 842 843 843 843 843 844 843 844 844 845 846 847 848 848 849 849 849 850 851 852 852 854 855 856 856 856 857 857 857 858 858 858 859 860 860 861 861 861 861 861 861 862 862 862
807 811 813 822 823 825 825 825 822 817 818 816 812 807 806 809 809 805 803 806 806 811 810 803 805 808 822 830 824 823 823 823 824 826 828 828 830 831 833 834 835 837 837 838 838 839 840 840 841 842 842 842 842 843 843 843 844 843 844 843 844 844 845 847 847 848 849 849 850 850 851 852 853 854 855 856 856 857 857 858 858 858 858 859 859 860 861 861 862 862 862 862 862 863 863 863 863
802 807 813 821 820 821 823 824 823 820 823 817 811 808 807 810 809 805 802 808 809 808 806 800 801 810 823 827 827 826 822 824 825 827 828 829 831 832 834 835 836 837 837 838 839 839 840 841 841 842 842 843 843 843 844 844 844 844 844 844 844 845 845 847 847 848 849 849 850 851 852 853 854 855 856 856 857 857 858 859 859 859 859 859 860 861 861 862 862 863 863 863 863 864 864 864 864
799 805 812 821 822 822 820 821 822 820 822 814 810 810 808 807 807 808 803 808 810 799 800 803 802 812 822 824 827 823 820 823 824 827 828 831 832 833 836 836 837 837 838 839 839 840 840 841 841 842 843 843 844 844 844 844 844 844 844 845 845 846 846 847 847 848 849 850 850 851 852 854 855 856 857 858 858 858 859 860 860 860 860 860 861 861 862 862 863 863 863 864 864 865 865 865 865
796 804 816 824 824 825 820 816 820 822 819 812 810 810 811 808 807 811 801 798 807 799 800 807 804 808 816 817 819 817 819 823 824 828 829 832 833 835 837 837 838 838 839 839 840 841 841 842 842 842 843 843 844 844 845 845 845 845 845 846 846 847 847 847 848 848 849 850 851 852 853 855 856 857 858 859 859 860 860 861 861 861 861 861 861 862 862 863 863 864 864 864 865 865 866 866 866
794 805 820 826 825 825 819 816 818 821 818 812 811 810 817 815 808 807 797 793 803 804 804 807 804 806 811 813 815 816 820 823 825 828 829 832 834 835 837 837 838 838 839 840 840 841 841 842 842 843 843 844 844 844 845 845 846 846 846 847 846 847 847 848 849 849 850 851 852 853 854 856 856 857 859 860 861 861 861 862 862 862 862 862 862 863 863 864 864 864 864 865 865 866 866 867 867
799 813 823 825 825 821 814 813 812 813 815 813 810 811 816 817 814 807 800 802 804 807 809 807 807 808 810 813 815 818 820 823 825 827 829 832 834 835 837 837 838 838 839 840 841 842 842 843 843 843 844 844 845 845 846 846 846 846 847 848 847 848 848 850 849 849 851 852 853 853 855 856 857 858 860 861 861 862 862 863 863 863 863 863 863 864 864 865 865 865 865 865 866 866 866 867 867
803 816 825 822 818 814 806 807 808 809 812 810 810 811 814 814 816 814 811 811 808 812 815 811 813 813 813 814 817 820 821 823 825 827 829 831 833 834 836 837 837 838 839 840 841 842 843 843 843 844 844 845 845 846 846 847 847 847 848 849 849 849 850 851 850 850 851 852 853 854 856 857 858 860 861 861 862 863 863 864 864 864 864 864 864 865 865 865 865 866 866 866 866 867 867 867 867
803 813 827 820 807 807 803 804 806 806 807 809 813 814 816 811 810 817 815 812 810 814 815 814 818 817 815 816 817 820 822 824 825 826 829 831 833 834 835 836 836 837 838 840 841 842 843 844 844 845 845 846 846 846 847 847 848 848 849 849 849 850 851 852 852 852 852 853 854 855 857 858 860 861 861 862 863 864 864 865 865 865 865 865 865 865 866 866 866 867 867 867 867 867 867 867 867
803 811 823 815 803 806 804 803 804 803 804 809 815 816 816 808 806 815 813 812 815 812 809 809 813 814 813 815 817 820 823 825 826 827 829 831 833 833 834 835 835 837 838 840 841 842 843 844 845 846 846 846 846 847 847 848 848 849 849 849 850 850 851 852 853 854 854 855 856 857 858 860 861 861 862 863 863 864 865 865 865 866 866 865 866 866 867 867 867 868 868 868 868 868 868 868 868
803 809 809 806 804 807 803 800 802 802 804 808 813 814 810 804 806 810 808 812 814 806 804 804 805 808 810 813 816 819 822 824 826 827 829 831 832 833 834 835 836 837 839 840 841 842 844 845 846 846 846 847 847 847 848 849 849 849 850 850 850 851 852 852 854 855 855 856 857 858 860 861 862 862 863 863 864 865 865 865 866 866 866 866 867 867 868 868 868 868 868 869 869 869 869 868 868
802 806 801 802 804 805 802 799 800 801 804 808 809 807 803 804 806 804 804 806 803 798 799 802 803 805 807 811 814 818 820 823 825 826 828 830 831 832 833 834 836 837 839 840 841 843 844 845 846 846 847 847 847 848 848 849 849 850 850 851 851 852 852 853 854 855 856 858 859 860 861 862 863 863 864 864 865 866 866 866 866 867 867 867 868 868 868 868 869 868 868 869 869 869 869 868 868
798 806 802 800 801 802 801 799 800 801 803 804 803 803 803 807 806 801 802 800 797 797 797 801 804 805 808 811 814 817 819 821 823 825 827 828 830 831 832 834 835 837 838 840 841 843 844 845 846 847 847 847 847 848 849 849 850 851 851 852 852 853 854 854 855 856 858 859 860 861 862 863 864 864 865 865 866 866 867 867 867 868 868 868 868 868 869 869 869 869 869 869 869 869 869 869 868
799 805 803 799 800 801 799 799 802 801 801 801 802 805 806 807 806 804 803 797 795 797 798 802 805 808 810 812 815 817 818 820 822 824 826 827 829 831 832 834 835 837 838 839 841 843 844 845 846 847 847 847 848 849 849 850 851 851 852 853 854 854 855 856 857 858 859 860 862 863 864 864 864 865 865 866 866 867 867 868 868 869 869 869 869 869 869 869 869 869 869 869 869 869 868 869 868
796 798 801 800 802 801 800 801 802 802 800 802 807 810 807 806 805 807 804 797 796 797 801 804 806 810 812 814 815 816 818 820 821 823 826 827 829 831 833 834 835 837 838 839 841 843 844 845 846 846 847 847 848 849 850 850 851 852 853 854 855 855 856 857 858 859 860 862 863 864 865 865 866 866 866 867 867 868 868 869 869 869 869 870 869 869 869 869 869 869 869 869 869 869 869 869 868
789 794 799 801 805 803 801 802 802 802 801 803 811 812 807 802 806 812 804 796 797 800 805 806 808 812 813 814 815 816 818 818 820 823 825 828 829 831 832 834 835 836 838 839 841 843 844 845 846 846 847 848 849 849 850 851 852 853 854 855 856 856 857 858 859 860 861 863 864 865 865 866 866 867 867 867 868 868 869 869 869 870 870 870 870 870 870 870 869 869 869 870 870 870 870 869 869
789 794 800 804 807 805 801 802 802 802 803 803 806 807 804 803 808 811 803 796 798 802 808 809 810 813 813 815 815 815 817 818 820 822 825 827 828 829 831 833 834 836 837 839 841 843 844 845 845 846 847 849 849 850 851 852 853 854 855 855 856 857 858 859 860 861 862 863 864 865 866 866 867 867 867 868 868 869 869 870 870 870 870 870 870 870 870 870 869 870 869 870 870 870 870 869 869
793 796 805 809 810 809 804 803 802 803 806 800 801 811 813 812 811 806 800 798 799 803 809 811 812 813 813 815 815 816 816 817 819 821 823 825 826 828 829 832 833 835 837 839 841 842 844 845 846 846 848 849 849 850 851 852 854 854 855 856 857 858 859 860 861 862 863 864 865 865 866 866 867 867 868 868 869 870 870 871 871 871 871 871 871 870 870 870 869 869 869 869 869 869 869 869 869
796 802 811 814 817 819 808 804 804 803 807 799 802 822 826 817 810 802 799 799 802 807 810 811 813 814 814 815 815 816 815 817 818 820 823 824 826 827 828 832 833 835 837 839 841 842 844 845 846 846 847 849 849 850 851 853 854 855 856 857 858 859 860 862 862 863 864 864 865 866 866 867 867 868 868 869 869 870 871 871 871 871 871 871 871 871 870 870 870 870 869 869 869 869 868 868 868
803 808 815 817 823 825 811 806 808 807 807 798 802 823 827 816 809 805 801 800 804 810 811 812 813 814 815 815 815 817 815 817 818 819 822 823 825 826 828 831 833 835 837 839 841 842 844 845 846 847 847 849 850 851 852 853 854 855 857 857 858 860 861 862 863 864 864 865 865 866 867 867 868 868 869 869 870 871 871 871 871 871 871 871 871 871 871 870 870 870 869 869 869 869 869 868 868
810 816 823 822 823 826 815 808 809 810 807 799 804 822 827 817 812 810 806 803 804 809 812 812 813 813 814 815 815 817 816 816 817 819 821 823 825 826 827 830 833 835 836 838 840 841 844 845 847 847 847 849 850 851 852 853 855 856 857 858 859 861 862 863 863 864 865 865 866 866 867 867 868 868 869 870 870 871 871 872 871 871 871 872 872 871 871 870 870 870 869 869 869 869 868 868 867
816 818 827 827 826 828 822 813 809 808 809 805 807 819 824 818 813 809 807 806 805 809 812 812 813 813 814 815 815 816 817 817 818 819 821 823 824 825 827 829 832 835 836 838 840 841 843 845 847 847 848 849 850 851 853 854 855 856 858 859 860 861 862 863 863 864 865 865 866 866 867 868 868 869 869 870 871 871 871 872 871 872 872 872 872 872 871 871 870 870 869 869 869 868 868 867 867
823 823 826 827 827 828 826 820 811 806 810 811 811 815 818 815 812 808 806 805 805 809 812 812 812 813 813 814 815 816 817 817 818 818 820 822 824 826 827 829 831 834 836 838 840 841 843 845 846 848 848 849 850 851 853 854 856 857 858 859 860 861 862 863 864 865 865 865 866 867 867 868 868 869 869 870 871 871 871 871 872 872 872 872 872 872 871 871 870 870 870 870 869 869 868 867 867
820 825 825 826 827 826 826 821 811 807 812 814 815 816 816 815 812 809 806 803 805 809 810 811 811 813 814 814 816 817 817 817 816 817 820 822 824 826 827 829 831 834 836 838 840 841 843 844 846 848 849 850 851 852 853 854 856 857 859 859 860 861 862 863 863 864 865 866 866 867 867 868 868 869 869 870 870 871 871 871 872 872 872 872 872 872 872 871 871 871 870 870 870 869 869 868 868
807 814 816 822 826 824 820 815 809 807 813 817 817 818 819 819 814 809 807 804 805 808 809 810 812 813 814 815 815 817 818 817 815 817 820 822 824 825 827 829 831 833 835 837 840 841 842 844 846 847 849 850 851 852 853 854 856 858 859 860 861 861 862 862 863 864 864 865 866 867 867 868 868 869 869 870 870 871 871 871 872 872 872 872 872 872 872 872 872 871 871 870 870 870 869 868 867
799 807 810 815 821 822 816 813 810 806 814 820 817 818 822 822 818 813 808 805 806 808 810 812 812 813 815 815 816 817 818 816 815 817 820 822 824 825 827 829 831 833 835 837 839 841 842 843 845 847 848 850 851 852 853 854 855 857 858 860 860 861 862 862 863 864 864 865 866 867 867 868 868 869 869 870 870 871 871 871 872 872 872 872 873 872 872 872 872 872 871 871 870 869 869 868 868
796 803 810 815 819 821 816 813 811 807 815 821 816 820 824 822 822 816 809 808 808 807 809 812 812 813 814 814 816 817 816 815 815 818 820 822 824 825 827 829 831 833 834 837 838 840 842 843 845 846 848 849 851 852 853 854 855 856 858 859 860 860 861 862 863 863 864 865 866 867 867 868 868 869 869 870 870 871 871 871 872 872 872 873 873 873 873 873 873 872 872 871 871 870 869 868 869
796 802 810 818 819 820 820 815 812 811 817 821 819 823 826 823 822 817 813 811 807 803 804 807 809 812 814 814 815 817 817 816 817 818 820 822 824 825 827 829 831 832 834 836 838 839 841 843 845 846 847 849 851 853 853 854 855 856 858 859 859 860 861 862 862 863 864 865 866 867 867 868 868 869 869 870 870 871 871 871 871 872 873 873 873 873 873 873 873 873 872 872 871 870 870 869 869
796 802 809 818 817 817 822 821 818 816 817 819 820 825 830 828 824 818 814 812 806 803 803 803 804 808 811 811 812 815 817 818 818 818 819 822 823 825 827 828 830 832 834 836 837 839 841 842 844 846 847 849 850 852 854 855 856 857 858 859 859 860 861 862 863 863 864 865 866 866 867 868 868 869 869 870 871 871 871 871 872 872 872 873 873 873 873 873 873 873 873 872 872 871 870 869 869
796 796 801 812 813 809 813 819 820 819 820 818 820 834 838 832 830 823 816 812 806 804 804 805 805 804 806 808 809 812 814 815 817 818 819 821 823 824 826 828 830 832 833 835 837 838 840 842 844 845 847 849 850 852 854 855 856 857 857 858 859 860 861 862 863 863 864 865 865 866 867 867 868 869 869 870 870 871 871 871 872 872 872 873 873 873 873 873 873 873 873 873 872 871 870 870 870
799 793 791 798 804 805 811 817 819 827 833 821 819 842 847 832 830 828 823 818 810 806 807 807 808 806 806 808 809 810 811 812 814 816 818 820 822 824 826 828 829 831 833 835 837 838 840 841 843 845 847 848 850 851 853 854 855 856 857 857 858 859 860 861 861 862 863 864 865 866 867 867 868 869 869 870 870 871 871 871 872 872 872 873 873 873 873 873 873 873 873 873 873 872 872 871 871
802 790 783 791 799 807 814 815 818 830 835 822 815 836 848 839 831 827 826 823 814 811 810 807 808 809 807 808 808 809 811 812 813 814 816 819 821 823 826 827 829 831 833 835 837 838 840 841 843 845 847 848 850 851 852 853 854 856 856 857 858 858 859 860 861 862 863 864 865 866 866 867 868 869 869 870 870 871 871 872 872 872 873 873 873 873 873 873 874 873 874 874 873 873 873 872 872
795 781 780 792 800 809 813 812 819 825 825 824 820 825 841 845 832 823 825 827 820 815 812 808 808 809 807 807 806 806 808 810 812 814 815 817 820 822 825 827 828 830 833 835 837 838 840 842 843 845 847 848 849 851 852 853 854 855 856 857 858 858 859 860 861 862 863 864 865 866 866 867 868 869 870 870 870 871 871 872 872 872 873 873 873 873 874 874 874 874 874 874 874 873 873 873 872
786 776 781 792 799 807 810 812 820 820 823 835 831 823 838 845 829 821 827 831 826 818 814 810 809 809 807 806 805 804 805 806 809 812 814 816 818 821 823 826 828 830 832 834 836 838 840 842 843 845 847 848 849 850 851 852 853 854 855 856 857 858 859 860 861 862 863 864 865 866 866 867 868 869 870 870 870 871 871 872 872 873 873 873 873 874 874 874 874 874 874 873 874 873 873 873 873
782 777 785 794 800 806 811 817 821 821 828 839 833 825 837 844 832 827 832 833 827 818 813 809 807 807 806 805 804 803 804 805 806 809 812 815 817 820 822 825 828 830 832 834 836 838 840 841 843 845 846 847 848 850 851 852 853 854 855 856 857 858 859 860 861 862 863 864 864 865 866 867 868 869 869 870 870 871 871 872 872 873 873 873 874 874 874 874 874 874 873 873 873 873 873 873 873
777 782 793 803 808 810 815 818 819 832 840 837 830 824 832 842 833 825 827 824 818 815 813 809 806 806 805 804 803 802 803 804 805 807 810 814 816 819 822 824 827 830 832 834 835 837 839 841 843 844 846 847 848 849 850 851 853 853 854 855 857 858 859 860 861 861 862 863 864 865 866 867 867 868 869 869 870 870 871 872 872 873 873 873 874 874 874 874 873 873 873 873 873 873 873 873 873
774 787 799 811 821 819 823 826 826 841 847 834 828 823 830 842 831 817 815 811 809 811 811 808 807 806 804 802 802 800 802 803 804 807 809 813 816 818 821 823 826 829 831 833 834 836 838 840 842 844 845 846 847 848 849 850 852 853 854 855 856 857 858 859 860 861 862 862 863 864 865 866 867 868 869 869 870 870 870 871 872 872 873 873 873 873 873 873 873 873 873 873 873 873 873 873 873
779 792 802 819 837 837 839 843 838 842 841 829 825 826 834 836 818 808 809 806 805 806 804 804 803 803 802 801 801 799 800 802 803 806 808 811 814 816 819 822 825 827 829 831 833 835 837 839 841 843 844 846 847 848 849 850 851 852 853 854 856 857 858 858 859 860 861 862 863 864 865 866 867 867 868 868 869 869 870 870 871 871 872 872 873 873 873 873 873 873 873 873 873 873 873 873 873
785 793 801 816 836 846 851 851 843 841 838 828 822 827 836 830 809 801 802 800 800 800 799 799 798 800 800 798 799 799 799 801 802 804 806 809 812 814 817 820 823 825 827 830 832 833 836 838 839 841 843 844 846 847 848 849 850 851 853 854 855 856 856 858 859 859 860 861 862 863 864 865 866 866 867 868 868 869 869 870 870 871 871 872 872 872 872 873 873 873 873 873 873 873 873 873 873
781 779 789 801 810 822 837 841 837 839 839 833 829 830 832 826 808 796 794 794 795 796 796 795 796 800 801 799 799 799 799 800 801 803 804 806 809 812 815 818 820 823 826 828 830 832 834 836 838 839 841 843 845 846 847 848 849 851 852 853 854 855 856 856 858 859 860 860 861 862 863 864 865 865 866 867 868 868 869 869 870 870 870 871 871 872 872 872 872 873 873 873 873 873 873 873 873
780 771 784 794 786 789 811 822 820 828 837 837 834 828 816 807 800 792 792 794 794 796 797 796 798 801 801 802 801 799 799 799 800 802 803 804 807 810 813 815 819 822 824 826 828 830 832 834 836 838 840 842 843 845 846 847 849 850 851 852 853 853 855 856 856 858 858 859 860 861 862 863 864 865 865 866 867 867 868 869 869 870 870 871 871 871 872 872 872 872 872 873 873 873 873 873 873
781 779 785 782 769 775 803 819 814 819 834 833 828 823 811 803 800 793 793 796 796 797 798 797 799 800 801 801 801 800 798 797 799 800 801 803 805 808 810 813 816 819 822 824 826 828 830 832 834 836 838 840 842 843 845 846 847 848 850 851 852 852 853 854 855 856 857 858 859 860 861 862 863 864 864 865 866 866 867 868 869 869 870 870 871 871 871 871 872 872 872 872 872 873 873 873 873
776 786 778 769 770 774 790 817 828 828 834 832 825 823 818 814 810 799 796 800 799 797 797 797 798 799 800 799 800 800 797 796 798 798 799 801 803 806 808 811 814 817 819 822 824 827 829 831 833 835 836 838 840 842 843 845 846 847 848 849 850 851 852 853 854 855 856 856 857 858 859 860 861 862 863 864 865 865 866 867 868 868 869 869 870 870 871 871 871 871 871 872 872 872 872 872 872
758 767 760 766 786 791 792 811 828 831 835 833 825 822 817 812 808 800 798 800 798 796 796 796 797 798 797 796 797 799 796 796 799 800 800 800 801 804 806 809 812 815 818 820 823 826 827 830 831 833 835 836 838 840 842 844 845 846 847 848 849 850 851 852 853 854 855 855 856 857 858 859 860 861 862 863 864 864 865 866 867 867 868 869 869 869 870 870 870 871 871 871 871 872 872 872 872
749 753 757 762 774 786 790 794 803 816 831 831 826 826 815 798 790 790 791 792 792 794 795 794 795 796 794 793 795 797 796 796 798 800 800 798 799 802 804 807 810 813 816 818 821 824 826 828 830 832 834 835 837 839 841 842 844 845 846 847 848 849 850 851 852 853 854 854 855 856 857 858 859 860 861 861 862 863 864 865 866 866 867 867 868 868 869 869 870 870 870 870 871 871 871 871 871
757 763 770 768 765 771 778 782 784 798 819 827 828 827 808 784 777 779 781 784 786 788 790 791 791 791 792 791 792 795 795 794 795 797 797 796 798 800 802 805 808 811 815 817 820 822 824 827 829 830 833 834 836 838 839 841 842 844 845 846 847 848 849 850 851 852 852 853 854 855 856 857 857 858 859 860 861 862 863 864 865 865 866 866 867 867 868 869 869 869 869 870 870 870 870 870 870
754 761 766 766 767 773 786 794 785 784 799 810 815 816 800 778 771 772 774 777 780 782 785 787 787 787 789 790 791 793 793 793 792 793 795 795 796 798 801 804 807 809 812 815 818 820 823 825 827 829 831 833 834 836 838 840 841 843 844 845 846 847 848 850 850 851 852 852 853 854 855 856 856 857 858 859 860 861 862 863 863 864 865 865 866 866 867 868 868 869 869 869 869 869 869 869 869